Location: Beierfelde
(51.7000°N, 10.2500°E)
Time: 01:58:24
(UTC+00:00)

Daily predictions for brighter satellites

Satellite Brightness Start Highest point End
(mag) Time Altitude Azimuth Time Altitude Azimuth Time Altitude Azimuth
CENTAUR R/B 3.8 02:03:00 33° ESE 02:03:00 33° ESE 02:08:46 10° NE
CZ-2C R/B 4.5 02:23:34 10° NE 02:27:37 24° E 02:29:29 19° ESE
ARIANE 5 R/B 4.2 02:23:07 10° NNE 02:25:19 27° NNE 02:25:19 27° NNE
Cosmos 1697 Rocket 3.4 02:35:00 50° NE 02:35:11 50° NE 02:40:41 10° SE
Cosmos 2344 3.5 02:37:40 66° S 02:38:31 72° SE 02:46:41 10° NE
ADEOS II 4.0 02:33:46 10° N 02:35:25 20° N 02:35:25 20° N
Lacrosse 4 Rocket 3.6 02:42:02 23° ENE 02:42:02 23° ENE 02:44:04 10° NE
USA 238 DEB 3.7 02:41:02 74° SE 02:41:02 74° SE 02:47:58 10° NE
USA 238 3.7 02:41:08 74° SE 02:41:08 74° SE 02:48:04 10° NE
NOSS 3-2 (A) 3.5 02:44:26 74° ENE 02:44:26 74° ENE 02:50:39 10° NE
Lacrosse 5 rocket 3.9 02:50:06 15° ESE 02:50:06 15° ESE 02:51:25 10° E
ATLAS 3B R/B 4.5 02:45:54 10° SSE 02:50:59 24° ESE 02:56:09 10° ENE
Resurs 1-4 Rocket 4.5 02:50:26 10° N 02:50:59 12° NNW 02:50:59 12° NNW
Cosmos 1980 Rocket 3.2 02:54:35 22° N 02:57:52 43° NE 03:03:11 10° ESE
USA 234 3.1 02:52:16 10° ENE 02:58:49 76° NNW 02:59:22 71° WNW
SL-16 R/B 4.4 03:00:37 13° NNW 03:00:37 13° NNW 03:03:08 10° N
ADEOS Rocket 2.8 02:57:19 10° SSE 03:02:47 77° ENE 03:08:29 10° NNW
Cosmos 494 Rocket 4.4 03:04:22 57° NNE 03:04:22 57° NNE 03:08:37 10° NNE
Cosmos 2180 Rocket 4.4 02:59:24 10° N 03:05:44 85° ENE 03:11:57 10° S
Geosat 4.3 03:04:31 10° SE 03:09:28 64° NE 03:10:58 43° N
Cosmos 1269 Rocket 4.2 03:09:19 61° SSE 03:09:58 67° ESE 03:15:15 10° NNE
CZ-2D R/B 4.5 03:10:10 10° NNW 03:10:16 10° NNW 03:10:16 10° NNW
Cosmos 2360 4.3 03:13:18 36° NNW 03:15:44 74° ENE 03:21:25 10° SE
IDEFIX/ARIANE 42P 3.4 03:15:26 10° N 03:18:52 37° NNW 03:18:52 37° NNW
Cosmos 2278 4.0 03:24:14 19° NNW 03:28:22 67° NE 03:34:00 10° SE
Cosmos 2322 Rocket 4.1 03:24:37 10° NNW 03:29:21 26° NE 03:34:03 10° E
COSMO-SKYMED 1 4.4 03:26:58 10° SE 03:30:46 30° ENE 03:34:34 10° N
MSX 3.8 03:25:59 10° N 03:31:38 59° WNW 03:32:03 58° W
Cosmos 220 Rocket 4.0 03:32:31 73° N 03:32:55 84° ENE 03:37:21 10° SSE
Cosmos 1300 3.8 03:29:17 10° N 03:32:58 44° ENE 03:36:38 10° SSE
ALOS 3.7 03:29:11 10° NNE 03:33:34 38° E 03:37:55 10° SSE
In-Cosmos 22 4.0 03:35:42 61° WSW 03:36:15 65° WNW 03:41:44 10° N
Cosmos 2279 Rocket 4.1 03:31:11 10° NNW 03:43:01 10° SSW 03:36:37 48° WNW
CZ-4B R/B 2.1 03:33:49 10° SSE 03:37:08 55° ENE 03:37:08 55° ENE
Cosmos 1833 Rocket 3.0 03:33:51 21° S 03:37:37 64° ESE 03:43:13 10° NE
Cosmos 1992 Rocket 4.0 03:34:01 19° NNW 03:37:52 83° ENE 03:43:05 10° SSE
Cosmos 1674 3.9 03:42:36 32° N 03:42:36 32° N 03:44:48 10° N
SL-14 R/B 4.4 03:37:26 10° SSE 03:41:15 45° E 03:45:07 10° NNE
Cosmos 1626 2.8 03:39:54 24° SSE 03:41:54 53° E 03:45:32 10° NNE
CZ-2C R/B 4.5 03:39:01 10° N 03:40:50 24° N 03:40:50 24° N
Cosmos 1689 Rocket 4.4 03:42:36 10° SE 03:45:05 25° ENE 03:47:34 10° N
NOSS 3-2 (C) 3.4 03:43:21 46° WSW 03:45:16 74° NW 03:52:07 10° NE
Cosmos 1536 Rocket 3.9 03:48:19 50° NW 03:48:19 50° NW 03:52:06 10° N
Cosmos 2058 Rocket 4.2 03:46:32 10° N 03:50:54 46° ENE 03:55:13 10° SSE
Cosmos 2369 3.6 03:49:30 30° NW 03:52:16 62° WSW 03:57:49 10° SSE
CENTAUR R/B 2.6 03:50:11 39° WSW 03:52:46 71° NW 04:00:14 10° NE
Cosmos 1484 Rocket 3.4 03:52:20 10° NNE 03:56:10 56° E 03:59:54 10° S
CBERS 1 LM4 rocket 4.3 03:51:51 10° NNE 03:56:51 89° WNW 04:01:39 10° SSW
Meteor 1-24 Rocket 4.3 03:51:51 10° S 03:57:24 61° E 04:03:12 10° NNE
Cosmos 2082 Rocket 2.8 03:55:04 10° S 04:00:32 56° ESE 04:06:03 10° NE
Cosmos 1461 3.7 03:57:50 20° SSW 04:00:53 58° SE 04:05:34 10° NE
Cosmos 1892 Rocket 4.5 03:58:39 10° S 04:02:51 50° E 04:07:07 10° NNE
PSLV R/B 3.6 04:00:23 10° N 04:04:34 53° WNW 04:05:31 43° WSW
SL-16 R/B 3.2 04:00:31 10° NNW 04:05:58 45° NE 04:11:23 10° ESE
CZ-2C R/B 2.4 04:01:17 10° N 04:06:12 56° WNW 04:08:51 25° SW
ARIANE 5 R/B 4.0 04:03:06 10° N 04:05:38 19° NW 04:05:38 19° NW
CREW DRAGON DEMO-1 DEB 3.0 04:08:42 59° S 04:08:42 59° S 04:11:31 10° ESE
USA 290 3.1 04:06:41 15° S 04:09:11 50° ESE 04:12:22 10° NE
ISS -2.8 04:09:06 34° SSW 04:09:56 42° SSE 04:13:09 10° E
Cosmos 2251 Rocket 3.9 04:06:28 10° S 04:11:46 66° ESE 04:17:05 10° NNE
Cosmos 2333 Rocket 4.4 04:11:14 10° NNW 04:15:15 19° NNE 04:19:13 10° ENE
ADEOS II 4.2 04:16:06 10° NNW 04:16:21 10° NW 04:16:21 10° NW
SKYMED 2 3.6 04:14:19 10° SSE 04:18:38 80° ENE 04:23:01 10° NNW
Cosmos 1697 Rocket 3.2 04:16:50 26° WNW 04:19:00 35° WSW 04:24:05 10° S
Lacrosse 4 Rocket 1.8 04:18:22 37° WNW 04:19:05 40° NW 04:22:58 10° NNE
Meteor 1-31 Rocket 2.9 04:16:59 10° NNE 04:20:57 78° ESE 04:24:53 10° S
Cosmos 1455 4.0 04:17:36 10° N 04:21:10 34° ENE 04:24:42 10° SE
PSLV R/B 4.1 04:17:10 10° SSE 04:21:22 76° ENE 04:25:36 10° NNW
COSMOS 2406 3.3 04:21:37 21° WSW 04:25:21 54° NW 04:30:56 10° NNE
CZ-4B R/B 3.8 04:21:42 10° NNE 04:25:38 51° E 04:29:44 10° S
[s.n.46727] 4.1 04:25:26 21° SSW 04:26:39 31° SSE 04:29:09 10° E
[s.n.46723] 4.1 04:25:27 21° SSW 04:26:44 31° SSE 04:29:17 10° E
[s.n.46707] 4.1 04:25:36 21° SSW 04:26:50 31° SSE 04:29:20 10° E
[s.n.46708] 4.1 04:25:41 21° SSW 04:26:55 31° SSE 04:29:25 10° E
[s.n.46719] 4.1 04:25:47 21° SSW 04:27:01 31° SSE 04:29:30 10° E
[s.n.46724] 4.1 04:25:51 21° SSW 04:27:06 31° SSE 04:29:36 10° E
[s.n.46687] 4.1 04:25:57 21° SSW 04:27:11 31° SSE 04:29:41 10° E
[s.n.46696] 4.1 04:26:02 21° SSW 04:27:17 31° SSE 04:29:47 10° E
[s.n.46720] 4.1 04:26:07 21° SSW 04:27:22 31° SSE 04:29:52 10° E
[s.n.46676] 4.1 04:26:12 21° SSW 04:27:28 31° SSE 04:29:57 10° E
Lacrosse 5 rocket 1.0 04:25:46 29° SW 04:27:33 84° SSE 04:31:24 10° ENE
[s.n.46721] 4.1 04:26:18 21° SSW 04:27:33 31° SSE 04:30:03 10° E
[s.n.46728] 4.1 04:26:23 21° SSW 04:27:38 31° SSE 04:30:08 10° E
[s.n.46690] 4.1 04:26:28 21° SSW 04:27:44 31° SSE 04:30:14 10° E
[s.n.46694] 4.1 04:26:32 21° SSW 04:27:48 31° SSE 04:30:18 10° E
[s.n.46702] 4.1 04:26:39 21° SSW 04:27:54 31° SSE 04:30:25 10° E
[s.n.46679] 4.1 04:26:42 21° SSW 04:27:59 31° SSE 04:30:29 10° E
[s.n.46704] 4.1 04:26:44 20° SSW 04:28:03 32° SSE 04:30:37 10° E
[s.n.46712] 4.1 04:26:50 21° SSW 04:28:06 31° SSE 04:30:38 10° E
FENGYUN 3A 3.6 04:22:47 10° NNE 04:28:15 78° WNW 04:33:41 10° SSW
[s.n.46711] 4.1 04:26:58 20° SSW 04:28:15 32° SSE 04:30:46 10° E
[s.n.46684] 4.1 04:27:01 20° SSW 04:28:18 32° SSE 04:30:49 10° E
[s.n.46706] 4.1 04:27:09 20° SSW 04:28:26 32° SSE 04:30:57 10° E
[s.n.46678] 4.1 04:27:07 20° SSW 04:28:27 32° SSE 04:31:02 10° E
[s.n.46677] 4.1 04:27:17 20° SSW 04:28:34 32° SSE 04:31:05 10° E
[s.n.46671] 4.1 04:27:22 20° SSW 04:28:40 32° SSE 04:31:10 10° E
[s.n.46675] 4.1 04:27:27 20° SSW 04:28:45 32° SSE 04:31:16 10° E
[s.n.46674] 4.1 04:27:32 20° SSW 04:28:50 32° SSE 04:31:22 10° E
Meteor 2-5 Rocket 3.7 04:23:15 10° SSW 04:28:56 67° WNW 04:34:48 10° N
[s.n.46698] 4.1 04:27:38 20° SSW 04:28:56 32° SSE 04:31:27 10° E
[s.n.46699] 4.1 04:27:39 20° SSW 04:29:01 32° SSE 04:31:34 10° E
[s.n.46715] 4.1 04:27:48 20° SSW 04:29:07 32° SSE 04:31:38 10° E
[s.n.46714] 4.1 04:27:53 20° SSW 04:29:12 32° SSE 04:31:43 10° E
[s.n.46726] 4.0 04:27:59 20° SSW 04:29:17 32° SSE 04:31:49 10° E
[s.n.46703] 4.1 04:28:03 20° SSW 04:29:23 32° SSE 04:31:54 10° E
[s.n.46713] 4.0 04:28:09 20° SSW 04:29:28 32° SSE 04:32:01 10° E
[s.n.46717] 4.0 04:28:14 20° SSW 04:29:33 32° SSE 04:32:06 10° E
[s.n.46691] 4.1 04:28:16 20° SSW 04:29:39 33° SSE 04:32:13 10° E
[s.n.46693] 4.0 04:28:25 20° SSW 04:29:45 32° SSE 04:32:17 10° E
[s.n.46672] 4.0 04:28:30 20° SSW 04:29:50 32° SSE 04:32:22 10° E
[s.n.46701] 4.0 04:28:35 20° SSW 04:29:56 32° SSE 04:32:28 10° E
[s.n.46685] 4.0 04:28:40 20° SSW 04:30:01 32° SSE 04:32:33 10° E
[s.n.46709] 4.0 04:28:46 20° SSW 04:30:07 32° SSE 04:32:39 10° E
[s.n.46683] 4.0 04:28:50 20° SSW 04:30:11 33° SSE 04:32:43 10° E
[s.n.46695] 4.0 04:28:55 20° SSW 04:30:16 33° SSE 04:32:49 10° E
Cosmos 2360 Rocket 3.7 04:25:08 10° NNW 04:30:17 35° NE 04:35:23 10° ESE
[s.n.46688] 4.0 04:29:01 20° SSW 04:30:23 33° SSE 04:32:55 10° E
[s.n.46729] 4.0 04:29:06 20° SSW 04:30:28 33° SSE 04:33:00 10° E
[s.n.46697] 4.0 04:29:09 20° SSW 04:30:30 33° SSE 04:33:03 10° E
[s.n.46725] 4.0 04:29:14 20° SSW 04:30:36 33° SSE 04:33:07 10° E
[s.n.46682] 4.0 04:29:19 20° SSW 04:30:41 33° SSE 04:33:13 10° E
[s.n.46680] 4.0 04:29:25 20° SSW 04:30:47 33° SSE 04:33:19 10° E
[s.n.46718] 4.0 04:29:30 20° SSW 04:30:52 33° SSE 04:33:25 10° E
[s.n.46710] 4.0 04:29:35 20° SSW 04:30:58 33° SSE 04:33:30 10° E
[s.n.46673] 4.0 04:29:46 20° SSW 04:31:09 33° SSE 04:33:41 10° E
[s.n.46700] 4.0 04:29:51 20° SSW 04:31:14 33° SSE 04:33:47 10° E
[s.n.46705] 4.0 04:29:56 20° SSW 04:31:20 33° SSE 04:33:52 10° E
[s.n.46692] 4.0 04:30:02 20° SSW 04:31:26 33° SSE 04:33:59 10° E
[s.n.46686] 4.0 04:30:07 20° SSW 04:31:31 33° SSE 04:34:04 10° E
[s.n.46716] 4.0 04:30:12 20° SSW 04:31:37 33° SSE 04:34:09 10° E
[s.n.46722] 4.0 04:30:17 20° SSW 04:31:42 33° SSE 04:34:15 10° E
[s.n.46689] 4.0 04:30:23 20° SSW 04:31:48 33° SSE 04:34:21 10° E
[s.n.46681] 4.0 04:30:28 20° SSW 04:31:53 33° SSE 04:34:26 10° E
USA 238 DEB 4.2 04:28:30 22° W 04:32:29 44° NNW 04:39:14 10° NE
DNEPR-1 R/B 4.4 04:27:13 11° NW 04:32:31 57° NE 04:37:04 10° ESE
USA 238 4.2 04:28:35 22° W 04:32:35 44° NNW 04:39:19 10° NE
NOSS 3-2 (A) 4.2 04:31:50 22° WNW 04:35:27 40° NNW 04:42:05 10° NE
Cosmos 1726 Rocket 3.9 04:34:14 10° NNW 04:38:28 43° W 04:42:40 10° SSW
SAR-Lupe-4 3.9 04:35:12 10° S 04:38:35 41° W 04:42:00 10° NNW
ERS-2 3.7 04:37:42 10° SSW 04:39:16 18° SW 04:39:16 18° SW
ATLAS 3B R/B 2.6 04:34:17 10° SW 04:40:54 89° NW 04:47:39 10° NE
USA 234 3.6 04:35:10 10° ENE 04:41:32 57° N 04:46:42 16° WNW
Cosmos 1980 Rocket 2.5 04:36:39 10° NW 04:41:54 42° WSW 04:47:06 10° S
Cosmos 2228 3.8 04:39:42 10° NNW 04:43:30 29° W 04:47:18 10° SSW
Abrixas rocket 3.9 04:43:59 15° SW 04:44:28 16° SSW 04:46:18 10° SSE
ATLAS CENTAUR R/B 4.2 04:44:00 10° SSE 04:46:43 18° ESE 04:49:22 10° ENE
Cosmos 1092 Rocket 4.0 04:42:08 10° SSW 04:48:14 61° WNW 04:54:27 10° N
ADEOS Rocket 3.9 04:45:18 10° SW 04:49:07 19° W 04:53:02 10° NW
ADEOS 3.7 04:44:10 10° N 04:49:15 52° WNW 04:54:19 10° SW
CZ-2C R/B 4.5 04:44:26 10° SE 04:49:24 34° ENE 04:54:24 10° N
Aureole 3 3.9 04:48:14 10° NNW 04:52:07 46° W 04:56:59 10° SSW
Nadezhda 4 Rocket 4.4 04:47:04 10° SW 04:52:42 38° WNW 04:58:25 10° N
Cosmos 2344 4.1 04:47:42 16° W 04:53:35 46° NNW 05:02:15 10° NE
CZ-3 R/B 4.4 04:39:46 10° WSW 04:53:40 21° SSW 05:00:01 10° SSE
Cosmos 407 Rocket 4.4 04:48:59 10° S 04:53:57 53° ESE 04:58:59 10° NNE
Cosmos 1400 Rocket 3.5 04:51:30 10° NNW 04:54:58 30° W 04:58:25 10° SSW
CZ-4B R/B 4.1 04:50:56 10° N 04:55:04 49° WNW 04:58:59 10° SW
Cosmos 2219 Rocket 4.0 04:51:33 10° NNW 04:56:15 26° NE 05:00:54 10° E
IDEFIX/ARIANE 42P 4.4 04:57:30 10° NNW 04:58:55 11° NW 04:59:41 11° NW
GRACE-FO 1 4.5 04:59:27 10° S 05:03:06 74° W 05:06:45 10° N
GRACE-FO 2 4.5 04:59:50 10° S 05:03:29 73° W 05:07:08 10° N
S3M 4.1 05:00:31 10° N 05:06:51 89° WSW 05:13:13 10° S
COSMO-SKYMED 1 3.1 05:02:50 10° SSW 05:06:51 36° W 05:10:54 10° NNW
Cosmos 1300 4.1 05:05:39 10° NW 05:08:19 18° W 05:10:59 10° SW
ARGOS Delta rocket 4.3 05:03:11 10° N 05:08:23 52° WNW 05:13:40 10° SW
CZ-4B R/B 3.2 05:08:00 10° WSW 05:09:46 13° W 05:10:16 13° W
ALOS 3.0 05:06:45 10° N 05:10:55 33° WNW 05:15:04 10° SW
Cosmos 2292 Rocket 3.7 05:07:49 10° S 05:11:02 62° E 05:15:02 10° NNE
Cosmos 1655 Rocket 4.4 05:05:48 10° S 05:12:03 74° E 05:18:24 10° NNE
Meteor 2-10 Rocket 3.5 05:08:22 10° NNW 05:13:16 54° W 05:18:12 10° S
Cosmos 2322 Rocket 2.2 05:08:24 10° NNW 05:14:07 85° WSW 05:19:47 10° SSE
Cosmos 1689 Rocket 3.5 05:14:02 10° SW 05:16:15 19° W 05:18:28 10° NW
Cosmos 1626 3.7 05:15:10 10° WSW 05:17:29 16° WNW 05:19:49 10° NNW
deb Chang Zheng 4 4.4 05:17:19 10° N 05:20:57 28° WNW 05:24:35 10° WSW
MOS 1 Rocket 3.0 05:17:41 10° S 05:21:58 80° WSW 05:26:18 10° NNW
Cosmos 1833 Rocket 3.5 05:16:56 10° WSW 05:21:58 32° NW 05:27:01 10° NNE
Cosmos 2237 4.4 05:17:09 10° NNW 05:22:53 77° ENE 05:28:35 10° SE
H-2A R/B 2.8 05:21:44 10° NNE 05:26:11 79° ESE 05:30:26 10° SSW
Cosmos 2084 3.5 05:21:51 10° SW 05:26:12 73° NW 05:30:39 10° NE
Cosmos 1315 Rocket 3.4 05:22:59 10° NNW 05:26:51 39° W 05:30:41 10° SSW
Cosmos 2058 Rocket 4.2 05:25:03 10° NW 05:28:37 23° W 05:32:09 10° SW
Cosmos 1484 Rocket 4.3 05:27:35 10° NNW 05:30:11 17° WNW 05:32:46 10° WSW
Cosmos 192 4.4 05:25:32 10° NNW 05:30:27 61° WSW 05:35:19 10° S
Elektron 1 3.9 05:29:08 10° WSW 05:31:57 53° NNW 05:35:15 10° NE
Okean 1-7 Rocket 4.3 05:28:07 10° SW 05:32:16 34° WNW 05:36:25 10° N
CZ-4B R/B 4.2 05:27:14 10° NNE 05:32:30 53° E 05:37:39 10° S
H-2A R/B 2.7 05:29:14 10° N 05:33:01 64° WNW 05:36:49 10° SSW
SL-27 R/B 3.0 05:29:41 10° SSW 05:33:16 68° ESE 05:36:53 10° NNE
Cosmos 1758 Rocket 4.3 05:30:32 10° S 05:34:57 63° E 05:39:25 10° NNE
Cosmos 1553 Rocket 4.3 05:30:16 10° NNW 05:36:00 42° W 05:41:39 10° SSW
NOSS 3-2 (C) 4.5 05:31:35 10° W 05:37:17 35° NNW 05:43:49 10° NE
